Regional Weather Roundup
Issued by NWS

Home | Current Version | Previous Version | Text Only | Print | Product List | Glossary Off
Versions: 1 2 3 4 5 6 7 8 9 10 11 12 13 14 15 16 17 18 19 20 21 22 23 24 25 26 27 28 29 30 31 32 33 34 35 36 37 38 39 40 41 42 43 44 45 46 47 48 49 50

000
ASUS45 KCYS 281710
RWRWY

WYOMING REGIONAL WEATHER ROUNDUP
NATIONAL WEATHER SERVICE CHEYENNE WY
1100 AM MDT SAT MAR 28 2015

NOTE:  "FAIR" INDICATES FEW OR NO CLOUDS BELOW 12,000 FEET
WITH NO SIGNIFICANT WEATHER AND/OR OBSTRUCTIONS TO VISIBILITY.

WYZ001-281800-
YELLOWSTONE NATIONAL PARK

CITY           SKY/WX    TMP DP  RH WIND       PRES   REMARKS
LK YELLOWSTONE   N/A     50  25  37 SW8G20    30.04F
W YELLOWSTONE  NOT AVBL

$$
WYZ002>013-054>058-071-098>099-281800-
NORTHERN WYOMING

CITY           SKY/WX    TMP DP  RH WIND       PRES   REMARKS
JACKSON        SUNNY     52  34  50 S17G23    30.05F
CODY           FAIR      68  28  22 W12G21    29.82F
GREYBULL       FAIR      66  32  28 S12       29.84F
WORLAND        FAIR      68  30  24 SE8       29.85F
SHERIDAN       FAIR      74  26  16 W15       29.78F
BUFFALO        FAIR      70  28  21 E8        29.84F
GILLETTE       FAIR      71  29  21 SW10      29.83F
HULETT         FAIR      68  32  26 SW14      29.85F
NEWCASTLE      FAIR      61  30  31 SE9       29.90F

$$
WYZ014>020-022>026-101>103-281800-
CENTRAL WYOMING

CITY           SKY/WX    TMP DP  RH WIND       PRES   REMARKS
BIG PINEY      FAIR      49  28  44 S7        30.13F
PINEDALE       FAIR      52  32  46 S7        30.14F
DUBOIS         FAIR      55  25  30 W17G30    30.02F
LANDER         FAIR      69  24  18 W15G28    29.96F
RIVERTON       FAIR      63  28  26 VRB6      29.98F
CASPER         FAIR      64  30  27 S24G31    29.98F
DOUGLAS        FAIR      70  27  20 W20       29.95F

$$
WYZ021-027>030-104>119-281800-
SOUTHERN WYOMING

CITY           SKY/WX    TMP DP  RH WIND       PRES   REMARKS
EVANSTON       FAIR      61  27  27 SW18G30   30.19S
KEMMERER       FAIR      57  28  33 W21G26    30.18S
FORT BRIDGER   FAIR      65  25  22 W28       30.19S
ROCK SPRINGS   FAIR      60  27  28 W10       30.15F
DIXON          FAIR      60  29  30 S15G21    30.21F
RAWLINS        FAIR      60  25  26 SW22G31   30.14F
SARATOGA       FAIR      61  25  25 SW20      30.16F
LARAMIE        FAIR      60  23  24 SW24G32   30.12F
CHEYENNE       FAIR      67  25  20 W26G33    30.06F
TORRINGTON     FAIR      68  30  24 VRB6      29.94F
PINE BLUFFS    FAIR      70  27  19 NW16G23   30.03F

$$


USA.gov is the U.S. government's official web portal to all federal, state and local government web resources and services.